AEA6049 LEMD-LEPA

Flight info

Callsign AEA6049
Flight time 0h 52m
Altitude 32000
Route NANDO T257 LASPO M871 GODOX
Aircraft B738/M-SDE2E3FGHIRWXY/LB1

Departure

Time 2026-05-06 22:14
Airport Adolfo Suárez Madrid–Barajas Airport (LEMD)

Arrival

Time 2026-05-06 23:07
Airport Palma de Mallorca Airport (LEPA)
Time Latitude Longitude Altitude Speed Heading
2026-05-06 21:54 40.47279 -3.57141 1988 ft 0 kts 139°
2026-05-06 22:01 40.47282 -3.57143 1989 ft 2 kts 118°
2026-05-06 22:01 40.47282 -3.57164 1987 ft 2 kts 65°
2026-05-06 22:02 40.47273 -3.57183 1989 ft 2 kts 45°
2026-05-06 22:02 40.47260 -3.57197 1988 ft 2 kts 30°
2026-05-06 22:02 40.47252 -3.57202 1988 ft 1 kts 17°
2026-05-06 22:02 40.47251 -3.57202 1988 ft 0 kts 15°
2026-05-06 22:06 40.47277 -3.57197 1989 ft 7 kts
2026-05-06 22:06 40.47346 -3.57185 1990 ft 13 kts
2026-05-06 22:07 40.47445 -3.57167 1992 ft 15 kts
2026-05-06 22:07 40.47512 -3.57188 1994 ft 8 kts 324°
2026-05-06 22:07 40.47547 -3.57209 1995 ft 0 kts
2026-05-06 22:07 40.47549 -3.57208 1995 ft 1 kts 13°
2026-05-06 22:08 40.47570 -3.57184 1995 ft 7 kts 45°
2026-05-06 22:08 40.47617 -3.57128 1996 ft 11 kts 11°
2026-05-06 22:08 40.47684 -3.57172 1998 ft 11 kts 321°
2026-05-06 22:08 40.47746 -3.57235 1999 ft 11 kts 322°
2026-05-06 22:09 40.47807 -3.57296 2001 ft 11 kts 322°
2026-05-06 22:09 40.47867 -3.57357 2004 ft 11 kts 324°
2026-05-06 22:09 40.47940 -3.57429 2001 ft 16 kts 321°
2026-05-06 22:09 40.48041 -3.57533 2000 ft 21 kts 322°
2026-05-06 22:10 40.48167 -3.57662 1996 ft 25 kts 323°
2026-05-06 22:10 40.48309 -3.57806 1991 ft 26 kts 323°
2026-05-06 22:10 40.48453 -3.57934 1991 ft 24 kts 327°
2026-05-06 22:10 40.48594 -3.58041 2002 ft 23 kts 343°
2026-05-06 22:11 40.48751 -3.58049 2002 ft 23 kts 360°
2026-05-06 22:11 40.48838 -3.58040 2000 ft 11 kts 35°
2026-05-06 22:11 40.48858 -3.57929 1998 ft 14 kts 90°
2026-05-06 22:11 40.48858 -3.57785 1993 ft 17 kts 89°
2026-05-06 22:12 40.48870 -3.57638 1989 ft 15 kts 48°
2026-05-06 22:12 40.48969 -3.57618 1989 ft 15 kts 359°
2026-05-06 22:12 40.49078 -3.57620 1988 ft 18 kts
2026-05-06 22:12 40.49178 -3.57596 1988 ft 14 kts 49°
2026-05-06 22:13 40.49221 -3.57481 1984 ft 14 kts 57°
2026-05-06 22:13 40.49273 -3.57452 1982 ft 0 kts
2026-05-06 22:14 40.49326 -3.57452 1982 ft 32 kts 360°
2026-05-06 22:14 40.49839 -3.57457 1987 ft 113 kts 360°
2026-05-06 22:14 40.50846 -3.57466 2125 ft 165 kts 359°
2026-05-06 22:14 40.52036 -3.57495 2888 ft 177 kts 359°
2026-05-06 22:15 40.53288 -3.57540 3767 ft 188 kts 359°
2026-05-06 22:15 40.54624 -3.57590 4619 ft 196 kts
2026-05-06 22:15 40.56024 -3.57376 5122 ft 213 kts 16°
2026-05-06 22:15 40.57522 -3.56732 5462 ft 235 kts 20°
2026-05-06 22:16 40.58556 -3.56273 5963 ft 239 kts 19°
2026-05-06 22:16 40.60158 -3.55616 6794 ft 242 kts 17°
2026-05-06 22:16 40.61806 -3.54974 7401 ft 257 kts 17°
2026-05-06 22:16 40.63625 -3.54281 7626 ft 286 kts 18°
2026-05-06 22:17 40.65409 -3.52922 7823 ft 312 kts 47°
2026-05-06 22:17 40.66485 -3.50387 8321 ft 326 kts 77°
2026-05-06 22:17 40.66525 -3.47409 9088 ft 329 kts 102°
2026-05-06 22:17 40.65802 -3.44549 9941 ft 332 kts 117°
2026-05-06 22:18 40.64625 -3.41918 10699 ft 335 kts 124°
2026-05-06 22:18 40.63282 -3.39377 11442 ft 340 kts 127°
2026-05-06 22:18 40.61882 -3.36828 12188 ft 346 kts 127°
2026-05-06 22:18 40.60468 -3.34248 12939 ft 350 kts 127°
2026-05-06 22:19 40.59046 -3.31617 13691 ft 355 kts 127°
2026-05-06 22:19 40.57595 -3.28897 13992 ft 373 kts 127°
2026-05-06 22:19 40.56077 -3.26021 14164 ft 391 kts 126°
2026-05-06 22:19 40.54516 -3.23039 14599 ft 400 kts 126°
2026-05-06 22:20 40.52936 -3.20005 15208 ft 404 kts 126°
2026-05-06 22:20 40.51341 -3.16935 15816 ft 409 kts 126°
2026-05-06 22:20 40.49730 -3.13832 16380 ft 414 kts 126°
2026-05-06 22:20 40.48099 -3.10693 16935 ft 419 kts 126°
2026-05-06 22:21 40.46447 -3.07517 17494 ft 423 kts 127°
2026-05-06 22:21 40.44776 -3.04307 18029 ft 428 kts 127°
2026-05-06 22:21 40.43084 -3.01062 18509 ft 433 kts 127°
2026-05-06 22:21 40.41375 -2.97787 19003 ft 436 kts 127°
2026-05-06 22:22 40.39653 -2.94492 19512 ft 439 kts 127°
2026-05-06 22:22 40.37916 -2.91170 19977 ft 443 kts 127°
2026-05-06 22:22 40.36163 -2.87824 20449 ft 447 kts 127°
2026-05-06 22:22 40.34421 -2.84500 20895 ft 450 kts 127°
2026-05-06 22:23 40.32635 -2.81098 21342 ft 454 kts 127°
2026-05-06 22:23 40.30836 -2.77673 21785 ft 458 kts 128°
2026-05-06 22:23 40.29022 -2.74224 22201 ft 461 kts 128°
2026-05-06 22:23 40.27214 -2.70787 23079 ft 453 kts 128°
2026-05-06 22:24 40.25452 -2.67436 24017 ft 442 kts 128°
2026-05-06 22:24 40.23719 -2.64144 24770 ft 436 kts 128°
2026-05-06 22:24 40.21987 -2.60867 25215 ft 439 kts 128°
2026-05-06 22:24 40.20261 -2.57609 25529 ft 444 kts 128°
2026-05-06 22:25 40.18492 -2.54273 25911 ft 447 kts 129°
2026-05-06 22:25 40.16715 -2.50922 26333 ft 449 kts 129°
2026-05-06 22:25 40.14938 -2.47571 26860 ft 447 kts 129°
2026-05-06 22:25 40.13171 -2.44239 27461 ft 444 kts 129°
2026-05-06 22:26 40.11416 -2.40934 28026 ft 442 kts 129°
2026-05-06 22:26 40.09659 -2.37633 28530 ft 442 kts 129°
2026-05-06 22:26 40.07904 -2.34337 29018 ft 442 kts 129°
2026-05-06 22:26 40.06149 -2.31046 29548 ft 441 kts 129°
2026-05-06 22:27 40.04398 -2.27765 30088 ft 439 kts 129°
2026-05-06 22:27 40.02652 -2.24495 30498 ft 439 kts 129°
2026-05-06 22:27 40.00900 -2.21220 30788 ft 441 kts 130°
2026-05-06 22:27 39.99160 -2.17972 31023 ft 443 kts 130°
2026-05-06 22:28 39.97505 -2.14545 31267 ft 452 kts 119°
2026-05-06 22:28 39.96204 -2.10796 31549 ft 454 kts 121°
2026-05-06 22:28 39.94740 -2.07154 31803 ft 454 kts 123°
2026-05-06 22:28 39.93176 -2.03555 31982 ft 458 kts 124°
2026-05-06 22:29 39.89946 -1.96257 31984 ft 471 kts 124°
2026-05-06 22:29 39.86689 -1.88728 31987 ft 483 kts 123°
2026-05-06 22:30 39.83392 -1.80994 31988 ft 494 kts 123°
2026-05-06 22:30 39.80052 -1.73156 31993 ft 501 kts 124°
2026-05-06 22:31 39.76665 -1.65236 31980 ft 501 kts 124°
2026-05-06 22:31 39.73267 -1.57319 31989 ft 502 kts 124°
2026-05-06 22:32 39.69856 -1.49405 31988 ft 502 kts 124°
2026-05-06 22:32 39.66434 -1.41491 31991 ft 502 kts 124°
2026-05-06 22:33 39.63010 -1.33586 31992 ft 502 kts 124°
2026-05-06 22:33 39.59601 -1.25731 31988 ft 502 kts 125°
2026-05-06 22:34 39.56168 -1.17840 31995 ft 502 kts 125°
2026-05-06 22:34 39.52717 -1.09938 31995 ft 503 kts 125°
2026-05-06 22:35 39.49262 -1.02053 31997 ft 503 kts 125°
2026-05-06 22:35 39.45804 -0.94174 31986 ft 503 kts 125°
2026-05-06 22:36 39.42366 -0.86339 31988 ft 503 kts 125°
2026-05-06 22:36 39.38910 -0.78468 31984 ft 502 kts 126°
2026-05-06 22:37 39.35440 -0.70636 31986 ft 501 kts 126°
2026-05-06 22:37 39.31991 -0.62862 31986 ft 501 kts 126°
2026-05-06 22:38 39.29170 -0.54560 31995 ft 514 kts 108°
2026-05-06 22:38 39.28541 -0.45305 31986 ft 525 kts 88°
2026-05-06 22:39 39.29156 -0.35912 31981 ft 525 kts 88°
2026-05-06 22:39 39.29731 -0.26503 31977 ft 525 kts 88°
2026-05-06 22:40 39.30229 -0.17154 31971 ft 526 kts 89°
2026-05-06 22:40 39.30702 -0.07734 31970 ft 526 kts 89°
2026-05-06 22:41 39.31404 0.06422 31964 ft 527 kts 89°
2026-05-06 22:42 39.31868 0.15885 31970 ft 528 kts 89°
2026-05-06 22:42 39.32325 0.25353 31974 ft 528 kts 89°
2026-05-06 22:43 39.32772 0.34781 31969 ft 529 kts 89°
2026-05-06 22:43 39.33215 0.44269 31969 ft 529 kts 89°
2026-05-06 22:44 39.33646 0.53758 31961 ft 529 kts 89°
2026-05-06 22:44 39.34070 0.63256 31968 ft 530 kts 89°
2026-05-06 22:45 39.34488 0.72764 31968 ft 530 kts 90°
2026-05-06 22:45 39.34898 0.82273 31965 ft 530 kts 90°
2026-05-06 22:46 39.35301 0.91807 31967 ft 530 kts 90°
2026-05-06 22:46 39.35500 0.96566 31837 ft 532 kts 90°
2026-05-06 22:46 39.35696 1.01352 31005 ft 533 kts 90°
2026-05-06 22:46 39.35892 1.06130 30294 ft 532 kts 89°
2026-05-06 22:47 39.36085 1.10903 29500 ft 530 kts 89°
2026-05-06 22:47 39.36276 1.15654 28680 ft 528 kts 89°
2026-05-06 22:47 39.36462 1.20325 27885 ft 526 kts 89°
2026-05-06 22:47 39.36647 1.25044 27112 ft 523 kts 89°
2026-05-06 22:48 39.36829 1.29727 26351 ft 520 kts 89°
2026-05-06 22:48 39.37008 1.34372 25614 ft 516 kts 89°
2026-05-06 22:48 39.37184 1.38989 24892 ft 512 kts 89°
2026-05-06 22:48 39.37433 1.43573 24185 ft 510 kts 85°
2026-05-06 22:49 39.37935 1.48095 23496 ft 506 kts 82°
2026-05-06 22:49 39.38572 1.52563 22680 ft 503 kts 80°
2026-05-06 22:49 39.39239 1.56977 21889 ft 499 kts 80°
2026-05-06 22:49 39.39887 1.61363 21118 ft 494 kts 81°
2026-05-06 22:50 39.40500 1.65718 20373 ft 490 kts 81°
2026-05-06 22:50 39.41081 1.70043 19642 ft 486 kts 82°
2026-05-06 22:50 39.41634 1.74286 18941 ft 482 kts 82°
2026-05-06 22:50 39.42182 1.78546 18236 ft 478 kts 82°
2026-05-06 22:51 39.42723 1.82776 17435 ft 474 kts 82°
2026-05-06 22:51 39.43259 1.86960 16657 ft 470 kts 82°
2026-05-06 22:51 39.43788 1.91094 16131 ft 455 kts 82°
2026-05-06 22:51 39.44294 1.95030 15808 ft 436 kts 82°
2026-05-06 22:52 39.44787 1.98883 15237 ft 432 kts 82°
2026-05-06 22:52 39.45280 2.02690 14824 ft 425 kts 81°
2026-05-06 22:52 39.46032 2.06320 14441 ft 421 kts 72°
2026-05-06 22:52 39.46994 2.09880 14068 ft 418 kts 71°
2026-05-06 22:53 39.47996 2.13425 13687 ft 420 kts 71°
2026-05-06 22:53 39.48991 2.16989 13269 ft 420 kts 71°
2026-05-06 22:53 39.49957 2.20540 12833 ft 415 kts 71°
2026-05-06 22:53 39.50893 2.24062 12425 ft 411 kts 72°
2026-05-06 22:54 39.51809 2.27553 12019 ft 407 kts 72°
2026-05-06 22:54 39.52712 2.31015 11624 ft 404 kts 71°
2026-05-06 22:54 39.53607 2.34447 11226 ft 401 kts 71°
2026-05-06 22:54 39.54498 2.37868 10835 ft 398 kts 71°
2026-05-06 22:55 39.55605 2.41085 10435 ft 395 kts 56°
2026-05-06 22:55 39.57192 2.44026 10076 ft 392 kts 53°
2026-05-06 22:55 39.58744 2.46864 9665 ft 389 kts 53°
2026-05-06 22:55 39.60295 2.49725 9259 ft 387 kts 53°
2026-05-06 22:56 39.61829 2.52581 8832 ft 384 kts 54°
2026-05-06 22:56 39.63343 2.55420 8432 ft 381 kts 54°
2026-05-06 22:56 39.64843 2.58246 8033 ft 379 kts 54°
2026-05-06 22:56 39.66325 2.61047 7622 ft 376 kts 54°
2026-05-06 22:57 39.67798 2.63835 7230 ft 373 kts 54°
2026-05-06 22:57 39.69257 2.66601 6832 ft 370 kts 54°
2026-05-06 22:57 39.70706 2.69351 6447 ft 367 kts 54°
2026-05-06 22:57 39.72145 2.72084 6067 ft 364 kts 54°
2026-05-06 22:58 39.73572 2.74795 6003 ft 364 kts 54°
2026-05-06 22:58 39.74999 2.77508 5995 ft 363 kts 54°
2026-05-06 22:58 39.76421 2.80215 5993 ft 362 kts 54°
2026-05-06 22:58 39.77841 2.82922 5992 ft 363 kts 54°
2026-05-06 22:59 39.79266 2.85638 5955 ft 364 kts 54°
2026-05-06 22:59 39.80661 2.88303 5678 ft 348 kts 54°
2026-05-06 22:59 39.81833 2.90950 5390 ft 331 kts 70°
2026-05-06 22:59 39.82170 2.93809 5118 ft 314 kts 95°
2026-05-06 23:00 39.81612 2.96450 4853 ft 295 kts 121°
2026-05-06 23:00 39.80324 2.98397 4613 ft 277 kts 146°
2026-05-06 23:00 39.78742 2.99618 4348 ft 261 kts 166°
2026-05-06 23:00 39.77002 2.99899 4107 ft 246 kts 185°
2026-05-06 23:01 39.75302 2.99803 3861 ft 242 kts 189°
2026-05-06 23:01 39.73645 2.99458 3612 ft 240 kts 194°
2026-05-06 23:01 39.72019 2.98999 3365 ft 238 kts 196°
2026-05-06 23:01 39.70409 2.98509 3121 ft 237 kts 197°
2026-05-06 23:02 39.68817 2.97962 2868 ft 236 kts 198°
2026-05-06 23:02 39.67257 2.97328 2620 ft 234 kts 201°
2026-05-06 23:02 39.65781 2.96532 2501 ft 226 kts 219°
2026-05-06 23:02 39.64740 2.95082 2505 ft 215 kts 234°
2026-05-06 23:03 39.64138 2.94089 2485 ft 208 kts 234°
2026-05-06 23:03 39.63325 2.92616 2497 ft 193 kts 239°
2026-05-06 23:03 39.62637 2.91206 2478 ft 180 kts 240°
2026-05-06 23:03 39.61979 2.89816 2426 ft 182 kts 240°
2026-05-06 23:04 39.61330 2.88441 2210 ft 174 kts 240°
2026-05-06 23:04 39.60726 2.87163 2004 ft 162 kts 241°
2026-05-06 23:04 39.60155 2.85954 1781 ft 153 kts 240°
2026-05-06 23:04 39.59704 2.84998 1676 ft 144 kts 241°
2026-05-06 23:05 39.59165 2.83853 1447 ft 151 kts 240°
2026-05-06 23:05 39.58615 2.82687 1238 ft 152 kts 240°
2026-05-06 23:05 39.58054 2.81505 1117 ft 156 kts 239°
2026-05-06 23:05 39.57472 2.80291 870 ft 161 kts 239°
2026-05-06 23:06 39.56885 2.79022 615 ft 166 kts 240°
2026-05-06 23:06 39.56285 2.77746 361 ft 166 kts 238°
2026-05-06 23:06 39.55690 2.76473 135 ft 162 kts 238°
2026-05-06 23:06 39.55123 2.75284 36 ft 145 kts 238°
2026-05-06 23:07 39.54643 2.74282 29 ft 114 kts 239°
2026-05-06 23:07 39.54474 2.73913 29 ft 18 kts 239°
2026-05-06 23:07 39.54434 2.73792 29 ft 5 kts 279°
2026-05-06 23:07 39.54444 2.73765 29 ft 4 kts 312°
2026-05-06 23:08 39.54461 2.73743 29 ft 3 kts 318°
2026-05-06 23:08 39.54483 2.73727 29 ft 4 kts 330°
2026-05-06 23:08 39.54507 2.73710 10 ft 6 kts 330°
2026-05-06 23:08 39.54566 2.73664 29 ft 12 kts 329°
2026-05-06 23:09 39.54617 2.73610 29 ft 8 kts 293°
2026-05-06 23:09 39.54636 2.73547 29 ft 7 kts 315°
2026-05-06 23:09 39.54663 2.73502 29 ft 7 kts 269°
2026-05-06 23:09 39.54651 2.73445 29 ft 5 kts 253°
2026-05-06 23:10 39.54651 2.73443 29 ft 0 kts 254°
2026-05-06 23:10 39.54649 2.73437 29 ft 0 kts 254°